Regional Weather Roundup
Issued by NWS

Home | Current Version | Previous Version | Text Only | Print | Product List | Glossary On
Versions: 1 2 3 4 5 6 7 8 9 10 11 12 13 14 15 16 17 18 19 20 21 22 23 24 25 26 27 28 29 30 31 32 33 34 35 36 37 38 39 40 41 42 43 44 45 46 47 48 49 50
000
ASUS43 KMPX 220401
RWRMN
WEATHER ROUNDUP FOR MINNESOTA
NATIONAL WEATHER SERVICE TWIN CITIES/CHANHASSEN MN
1100 PM CDT FRI JUL 21 2017


NOTE: "FAIR" INDICATES FEW OR NO CLOUDS BELOW 12,000 FEET WITH NO
SIGNIFICANT WEATHER AND/OR OBSTRUCTIONS TO VISIBILITY. N/A MEANS
CURRENT SKY AND/OR WEATHER CONDITIONS ARE NOT AVAILABLE.

MNZ060>063-068>070-220500-
   Twin Cities Metro

CITY           SKY/WX    TMP DP  RH WIND       PRES   REMARKS
TWIN CITIES    CLOUDY    76  67  73 E9        29.87R
ST PAUL        CLOUDY    75  69  81 SE6       29.87R
CRYSTAL        CLOUDY    77  65  66 E7        29.86R
BLAINE         LGT RAIN  72  66  83 E10       29.89S
LAKEVILLE      CLEAR     70  70 100 E5        29.87S
EDEN PRAIRIE   CLOUDY    77  68  73 E7        29.85S
SOUTH ST PAUL  CLOUDY    75  66  75 E5        29.86F
LAKE ELMO      CLOUDY    73  68  83 NE5       29.89F
$$
MNZ001>005-007-008-013>017-022>024-027-028-220500-
   Northwest Minnesota

CITY           SKY/WX    TMP DP  RH WIND       PRES   REMARKS
BEMIDJI        CLOUDY    64  63  96 S5        29.80R
HALLOCK        CLOUDY    66  63  88 E5        29.76F
ROSEAU         CLEAR     63  57  82 CALM      29.81R
WARROAD        CLEAR     68  64  88 E8        29.82R
CROOKSTON      CLOUDY    68  66  94 SE5       29.77S
FOSSTON        CLOUDY    63  63 100 S5        29.81R
DETROIT LAKES  CLOUDY    68  64  88 S6        29.83R
MOORHEAD       CLOUDY    72  68  88 S6        29.80R
PARK RAPIDS    CLOUDY    68  64  87 S5        29.81R
MAHNOMEN       FAIR      66  64  90 S8        29.80R
$$
MNZ006-009>011-018-025>026-220500-
   North Central Minnesota

CITY           SKY/WX    TMP DP  RH WIND       PRES   REMARKS
BAUDETTE       PTCLDY    64  58  80 E3        29.82R
FLAG ISLAND    CLEAR     66  55  68 E6        29.81F
INTL FALLS     MOCLDY    59  57  93 CALM      29.82S
BIG FORK       MOCLDY    59  57  94 CALM      29.83R FOG
LONGVILLE      CLOUDY    64  64 100 CALM      29.79F
GRAND RAPIDS   CLOUDY    64  63  96 CALM      29.84S
CRANE LAKE     PTCLDY    57  57 100 CALM      29.85R FOG
ORR            PTCLDY    59  57  94 CALM      29.81S FOG
COOK           PTCLDY    59  57  94 CALM      29.83S
WALKER         FAIR      63  63  98 CALM      29.80S
$$
MNZ012-019>021-037-220500-
   Northeast Minnesota

CITY           SKY/WX    TMP DP  RH WIND       PRES   REMARKS
DULUTH         CLOUDY    62  62 100 E8        29.82S
ELY            CLOUDY    63  61  94 CALM      29.86R
HIBBING        CLOUDY    57  57 100 CALM      29.84R FOG
EVELETH        CLOUDY    60  57  90 CALM      29.85R FOG
DULUTH HARBOR  CLOUDY    64  63  94 N3        29.81R
TWO HARBORS    CLOUDY    64  59  82 CALM      29.82R
SILVER BAY     CLOUDY    61  59  94 NW5       29.82R
GRAND MARAIS     N/A     61  53  75 E6        29.86R
G MARAIS ARPRT CLOUDY    63  46  55 E7        29.90R
$$
MNZ029>031-032-039>041-046>048-054>057-064-220500-
   West Central Minnesota

CITY           SKY/WX    TMP DP  RH WIND       PRES   REMARKS
FERGUS FALLS   CLOUDY    70  64  83 SE6       29.78F
WHEATON        CLOUDY    72  66  83 SE8       29.82F
MORRIS         MOCLDY    72  66  83 S8        29.82F
ALEXANDRIA     CLOUDY    67  65  93 S8        29.84R
ELBOW LAKE     FAIR      67  65  94 S8        29.82R
WADENA         CLOUDY    64  64 100 SE6       29.82R
GLENWOOD       CLOUDY    68  66  94 S12       29.85F
APPLETON       CLOUDY    77  63  61 E17G29    29.83R
BENSON         HVY RAIN  70  64  83 SE9       29.86F
ORTONVILLE     CLOUDY    77  66  69 E13G20    29.81R
MADISON        PTCLDY    79  79 100 SE8       29.81R
WILLMAR        MOCLDY    75  72  88 E8        29.87S
$$
MNZ033>034-036-042>043-049>051-058-059-220500-
   Central Minnesota

CITY           SKY/WX    TMP DP  RH WIND       PRES   REMARKS
ST CLOUD       LGT RAIN  67  67 100 SE12G21   29.86F FOG
SAUK CENTRE    FAIR      67  66  97 S15       29.82F
PAYNESVILLE    CLOUDY    72  64  75 NE8G16    29.89S
AITKIN         CLOUDY    64  63  94 SE3       29.80F
PINE RIVER     CLOUDY    64  64 100 S5        29.84F
BRAINERD       CLOUDY    66  64  93 S12       29.81F
STAPLES        CLOUDY    64  64 100 S7        29.81F
LONG PRAIRIE   DRIZZLE   64  64 100 E6        29.82F
LITTLE FALLS   LGT RAIN  66  63  88 CALM      29.84F
LITCHFIELD     PTCLDY    75  72  88 E3        29.86F
BUFFALO        CLOUDY    75  69  83 N5        29.88F
MAPLE LAKE     CLOUDY    75  72  91 NE3       29.89S
HUTCHINSON     CLOUDY    74  70  88 E5        29.87F
$$
MNZ037-044-045-052-053-220500-
   East Central Minnesota

CITY           SKY/WX    TMP DP  RH WIND       PRES   REMARKS
PRINCETON      CLOUDY    72  64  78 W9        29.93R
MORA           LGT RAIN  64  63  94 SE8       29.87F
CAMBRIDGE      MOCLDY    70  63  78 E3        29.86F
RUSH CITY      CLOUDY    65  63  93 SE3       29.87F
MOOSE LAKE     CLOUDY    63  61  94 S3        29.81S
HINCKLEY       LGT RAIN  64  64 100 S3        29.86F
CLOQUET        CLOUDY    63  61  94 CALM      29.82R
MCGREGOR       CLOUDY    64  63  94 S5        29.82S
$$
MNZ071>073-080-081-089-090-097-098-220500-
   Southwest Minnesota

CITY           SKY/WX    TMP DP  RH WIND       PRES   REMARKS
MONTEVIDEO     PTCLDY    73  72  94 SE9       29.83R
GRANITE FALLS  CLEAR     75  71  86 E6        29.84F
CANBY          PTCLDY    75  73  91 CALM      29.82F
MARSHALL       CLEAR     74  71  91 E12       29.82S
REDWOOD FALLS  CLEAR     73  68  84 E7        29.83R
OLIVIA         PTCLDY    73  70  88 E6        29.84F
PIPESTONE      PTCLDY    75  72  88 SE6       29.83S
WINDOM         CLEAR     72  70  94 NE6       29.84S
WORTHINGTON    MOCLDY    73  71  93 NE9       29.84R
JACKSON        CLOUDY    72  72 100 CALM      29.84S
SLAYTON        PTCLDY    72  69  90 NE5       29.85R
$$
MNZ065>067-074>077-082>085-091>093-220500-
   South Central Minnesota

CITY           SKY/WX    TMP DP  RH WIND       PRES   REMARKS
MANKATO        CLOUDY    74  69  85 NE7       29.84S
NEW ULM        CLEAR     73  66  78 E7        29.84F
ST JAMES       MOCLDY    72  70  94 NE5       29.84S
FAIRMONT       CLOUDY    73  71  93 E6        29.83R
GLENCOE        CLOUDY    75  71  89 NE3       29.86S
FARIBAULT      MOCLDY    72  68  88 NE6       29.86S
OWATONNA       MOCLDY    73  68  83 E7        29.85F
WASECA         PTCLDY    72  68  88 NE6       29.86F
ALBERT LEA     CLOUDY    72  70  94 NE7       29.84S
$$
MNZ078>079-086>088-094>096-220500-
   Southeast Minnesota

CITY           SKY/WX    TMP DP  RH WIND       PRES   REMARKS
ROCHESTER      CLEAR     68  67  96 NE9       29.85F
RED WING       MOCLDY    73  66  78 E6        29.86S
STANTON        CLEAR     72  68  88 E5        29.85S
DODGE CENTER   CLEAR     70  66  88 NE6       29.85F
WINONA         CLOUDY    70  68  94 E5        29.84F
AUSTIN         CLOUDY    72  66  83 NE6       29.83S
PRESTON        CLOUDY    68  66  92 NE6       29.85F
$$
ABBREVIATIONS USED IN REMARKS
   TC - TEMPERATURES IN CELSIUS
  WCI - WIND CHILL INDEX
   HX - HEAT INDEX
  VSB - VISIBILITY
$$




USA.gov is the U.S. government's official web portal to all federal, state and local government web resources and services.